When you browse on this site, cookies collect data to enhance your experience and personalize the content and advertising you see.
Visit our Privacy Policy to learn more. By continuing to use the site, you agree to this use of cookies and data.
  • In Hungary
  • List of Countries
  • For 7 days
  • Water Temperature
  • Satellite Maps
  • Weather Map
  • News
  • Weather Widgets
  • user-avatar
    Login

    Hourly Weather Aprilia

    Today, 16 December, Sunday

    Time Temperature Precipitation Wind Pressure Humidity
    00:00 +4°C° 0 mm 3 mps 757 mmHg 67%
    01:00 +4°C° 0 mm 3 mps 757 mmHg 66%
    02:00 +4°C° 0 mm 3 mps 757 mmHg 65%
    03:00 +5°C° 0 mm 2 mps 757 mmHg 64%
    04:00 +5°C° 0 mm 2 mps 757 mmHg 63%
    05:00 +5°C° 0 mm 2 mps 758 mmHg 62%
    06:00 +5°C° 0 mm 2 mps 758 mmHg 62%
    07:00 +6°C° 0 mm 1 mps 758 mmHg 61%
    08:00 +7°C° 0 mm 1 mps 758 mmHg 59%
    09:00 +8°C° 0 mm 1 mps 758 mmHg 58%
    10:00 +9°C° 0 mm 1 mps 758 mmHg 56%
    11:00 +10°C° 0 mm 1 mps 758 mmHg 54%
    12:00 +11°C° 0 mm 1 mps 758 mmHg 52%
    13:00 +12°C° 0 mm 1 mps 758 mmHg 50%
    14:00 +11°C° 0 mm 1 mps 757 mmHg 53%
    15:00 +10°C° 0 mm 2 mps 757 mmHg 56%
    16:00 +9°C° 0 mm 2 mps 757 mmHg 60%
    17:00 +9°C° 0.1 mm 3 mps 757 mmHg 64%
    18:00 +9°C° 0.1 mm 3 mps 757 mmHg 67%
    19:00 +9°C° 0.1 mm 3 mps 757 mmHg 71%
    20:00 +8°C° 0.4 mm 4 mps 756 mmHg 74%
    21:00 +8°C° 0.4 mm 5 mps 756 mmHg 77%
    22:00 +8°C° 0.4 mm 6 mps 755 mmHg 80%
    23:00 +8°C° 1.2 mm 6 mps 754 mmHg 82%

    Tomorrow, 17 December, Monday

    Time Temperature Precipitation Wind Pressure Humidity
    00:00 +8°C° 1.2 mm 6 mps 754 mmHg 84%
    01:00 +8°C° 1.2 mm 6 mps 753 mmHg 85%
    02:00 +8°C° 1 mm 6 mps 753 mmHg 87%
    03:00 +9°C° 1 mm 6 mps 752 mmHg 89%
    04:00 +9°C° 1 mm 5 mps 752 mmHg 91%
    05:00 +9°C° 0.4 mm 5 mps 752 mmHg 91%
    06:00 +10°C° 0.4 mm 5 mps 752 mmHg 91%
    07:00 +10°C° 0.4 mm 5 mps 752 mmHg 91%
    08:00 +10°C° 0.1 mm 5 mps 752 mmHg 89%
    09:00 +10°C° 0.1 mm 5 mps 753 mmHg 86%
    10:00 +12°C° 0.1 mm 5 mps 753 mmHg 84%
    11:00 +12°C° 0 mm 5 mps 753 mmHg 81%
    12:00 +11°C° 0 mm 6 mps 753 mmHg 78%
    13:00 +11°C° 0 mm 6 mps 753 mmHg 74%
    14:00 +11°C° 0 mm 6 mps 753 mmHg 76%
    15:00 +10°C° 0 mm 6 mps 753 mmHg 78%
    16:00 +9°C° 0 mm 6 mps 754 mmHg 79%
    17:00 +9°C° 0 mm 7 mps 754 mmHg 79%
    18:00 +8°C° 0 mm 7 mps 755 mmHg 79%
    19:00 +8°C° 0 mm 7 mps 756 mmHg 79%
    20:00 +8°C° 0 mm 7 mps 756 mmHg 78%
    21:00 +6°C° 0 mm 7 mps 757 mmHg 77%
    22:00 +6°C° 0 mm 7 mps 757 mmHg 76%
    23:00 +6°C° 0 mm 7 mps 758 mmHg 75%

    Day after tomorrow, 18 December, Tuesday

    Time Temperature Precipitation Wind Pressure Humidity
    00:00 +6°C° 0 mm 7 mps 758 mmHg 74%
    01:00 +5°C° 0 mm 7 mps 759 mmHg 73%
    02:00 +5°C° 0 mm 7 mps 759 mmHg 72%
    03:00 +5°C° 0 mm 7 mps 759 mmHg 72%
    04:00 +5°C° 0 mm 7 mps 760 mmHg 71%
    05:00 +5°C° 0 mm 7 mps 760 mmHg 72%
    06:00 +5°C° 0 mm 7 mps 761 mmHg 72%
    07:00 +4°C° 0 mm 7 mps 761 mmHg 73%
    08:00 +5°C° 0 mm 6 mps 761 mmHg 70%
    09:00 +7°C° 0 mm 6 mps 762 mmHg 68%
    10:00 +8°C° 0 mm 5 mps 762 mmHg 65%
    11:00 +9°C° 0 mm 5 mps 762 mmHg 61%
    12:00 +10°C° 0 mm 5 mps 762 mmHg 58%
    13:00 +12°C° 0 mm 5 mps 762 mmHg 54%
    14:00 +10°C° 0 mm 5 mps 762 mmHg 57%
    15:00 +10°C° 0 mm 5 mps 762 mmHg 60%
    16:00 +10°C° 0 mm 4 mps 762 mmHg 63%
    17:00 +8°C° 0 mm 4 mps 762 mmHg 65%
    18:00 +7°C° 0 mm 4 mps 763 mmHg 67%
    19:00 +6°C° 0 mm 4 mps 763 mmHg 69%
    20:00 +7°C° 0 mm 3 mps 763 mmHg 66%
    21:00 +7°C° 0 mm 2 mps 763 mmHg 63%
    22:00 +6°C° 0 mm 2 mps 763 mmHg 61%
    23:00 +6°C° 0 mm 2 mps 763 mmHg 58%

    19 December, Wednesday

    Time Temperature Precipitation Wind Pressure Humidity
    00:00 +7°C° 0 mm 1 mps 762 mmHg 56%
    01:00 +7°C° 0 mm 1 mps 762 mmHg 54%
    02:00 +7°C° 0 mm 1 mps 762 mmHg 54%
    03:00 +7°C° 0 mm 1 mps 762 mmHg 53%
    04:00 +7°C° 0 mm 1 mps 762 mmHg 53%
    05:00 +6°C° 0 mm 2 mps 762 mmHg 53%
    06:00 +6°C° 0 mm 2 mps 762 mmHg 54%
    07:00 +6°C° 0 mm 2 mps 762 mmHg 54%
    08:00 +7°C° 0 mm 2 mps 762 mmHg 54%
    09:00 +8°C° 0 mm 2 mps 762 mmHg 54%
    10:00 +10°C° 0 mm 2 mps 762 mmHg 54%
    11:00 +10°C° 0 mm 2 mps 761 mmHg 54%
    12:00 +12°C° 0 mm 2 mps 761 mmHg 55%
    13:00 +12°C° 0 mm 3 mps 761 mmHg 56%
    14:00 +12°C° 0 mm 3 mps 761 mmHg 60%
    15:00 +11°C° 0 mm 3 mps 760 mmHg 65%
    16:00 +10°C° 0 mm 3 mps 760 mmHg 69%
    17:00 +10°C° 0 mm 3 mps 760 mmHg 70%
    18:00 +9°C° 0 mm 3 mps 760 mmHg 72%
    19:00 +8°C° 0 mm 4 mps 760 mmHg 73%
    20:00 +8°C° 0 mm 4 mps 760 mmHg 72%
    21:00 +8°C° 0 mm 4 mps 760 mmHg 72%
    22:00 +8°C° 0 mm 4 mps 760 mmHg 72%
    23:00 +8°C° 0 mm 5 mps 759 mmHg 73%

    20 December, Thursday

    Time Temperature Precipitation Wind Pressure Humidity
    00:00 +8°C° 0 mm 5 mps 759 mmHg 74%
    01:00 +8°C° 0 mm 5 mps 758 mmHg 76%
    02:00 +8°C° 0.1 mm 6 mps 758 mmHg 77%
    03:00 +9°C° 0.1 mm 6 mps 757 mmHg 79%
    04:00 +9°C° 0.1 mm 6 mps 757 mmHg 81%
    05:00 +9°C° 1.3 mm 6 mps 756 mmHg 84%
    06:00 +9°C° 1.3 mm 6 mps 756 mmHg 86%
    07:00 +10°C° 1.3 mm 5 mps 756 mmHg 88%
    08:00 +10°C° 1.4 mm 5 mps 756 mmHg 87%
    09:00 +10°C° 1.4 mm 5 mps 756 mmHg 85%
    10:00 +11°C° 1.4 mm 6 mps 756 mmHg 83%
    11:00 +13°C° 0.1 mm 5 mps 756 mmHg 79%
    12:00 +13°C° 0.1 mm 5 mps 756 mmHg 74%
    13:00 +14°C° 0.1 mm 5 mps 755 mmHg 69%
    14:00 +14°C° 0.2 mm 5 mps 756 mmHg 71%
    15:00 +13°C° 0.2 mm 6 mps 756 mmHg 73%
    16:00 +11°C° 0.2 mm 6 mps 756 mmHg 75%
    17:00 +11°C° 0.2 mm 6 mps 756 mmHg 76%
    18:00 +10°C° 0.2 mm 6 mps 756 mmHg 77%
    19:00 +9°C° 0.2 mm 6 mps 757 mmHg 78%
    20:00 +9°C° 0.1 mm 5 mps 757 mmHg 79%
    21:00 +9°C° 0.1 mm 5 mps 757 mmHg 80%
    22:00 +8°C° 0.1 mm 4 mps 758 mmHg 80%
    23:00 +8°C° 0 mm 4 mps 758 mmHg 80%

    21 December, Friday

    Time Temperature Precipitation Wind Pressure Humidity
    00:00 +8°C° 0 mm 4 mps 758 mmHg 81%
    01:00 +9°C° 0 mm 3 mps 758 mmHg 81%
    02:00 +9°C° 0 mm 3 mps 758 mmHg 81%
    03:00 +8°C° 0 mm 3 mps 758 mmHg 82%
    04:00 +8°C° 0 mm 3 mps 759 mmHg 82%
    05:00 +8°C° 0 mm 3 mps 759 mmHg 82%
    06:00 +8°C° 0 mm 3 mps 759 mmHg 83%
    07:00 +7°C° 0 mm 3 mps 760 mmHg 83%
    08:00 +8°C° 0 mm 3 mps 760 mmHg 79%
    09:00 +9°C° 0 mm 3 mps 760 mmHg 75%
    10:00 +10°C° 0 mm 3 mps 761 mmHg 71%
    11:00 +11°C° 0 mm 3 mps 761 mmHg 68%
    12:00 +11°C° 0 mm 3 mps 761 mmHg 65%
    13:00 +12°C° 0 mm 3 mps 760 mmHg 62%
    14:00 +12°C° 0 mm 3 mps 761 mmHg 65%
    15:00 +11°C° 0 mm 3 mps 761 mmHg 67%
    16:00 +12°C° 0 mm 2 mps 761 mmHg 69%
    17:00 +10°C° 0 mm 2 mps 761 mmHg 72%
    18:00 +9°C° 0 mm 2 mps 762 mmHg 74%
    19:00 +9°C° 0 mm 2 mps 762 mmHg 77%
    20:00 +8°C° 0 mm 2 mps 762 mmHg 77%
    21:00 +9°C° 0 mm 1 mps 762 mmHg 77%
    22:00 +9°C° 0 mm 1 mps 762 mmHg 77%
    23:00 +9°C° 0 mm 1 mps 762 mmHg 77%
    Show more